Reflectivity
-20 -20 -20 -20 -20 -20 -18 -20 37 6 -20 -20 -20 -20 -20 -20 -20 -20 -20 -20 -20 -13 -20 -5 -16 1 -19 -17 -20 -20 -8 -20 -20 -19 -20 -5 -1 1 3 8 7 -20 -20 1 23 12 -17 -14 -1
-20 -20 -20 -20 -20 -20 -20 -1 29 -3 -20 -20 -0 -20 5 -20 -20 -10 6 -20 -20 -20 -20 -20 -7 6 -15 -17 2 -1 6 5 -15 1 -6 8 1 4 5 14 11 -20 -20 6 13 33 36 29 1
-20 -20 -20 -20 -20 -20 11 -20 1 -20 18 -10 -20 -20 -20 -20 -20 -20 -20 -20 -20 -20 -20 -20 6 7 2 6 7 5 5 -14 6 -15 -20 -20 -20 -20 6 11 -9 -20 -20 -18 16 -5 18 7 7
-20 -20 -20 -20 -20 -19 -14 1 -10 -16 -20 -20 -20 -20 -20 -20 -20 -20 -6 -20 -20 -20 -20 6 7 1 5 4 -7 -20 -20 -20 -19 5 6 2 -1 -5 -20 -0 -20 -0 -20 -20 -20 -20 -20 -20 -20
-20 -20 -20 -20 -20 -20 -19 -8 11 -18 -20 -20 -20 -20 -20 -20 -20 -20 1 -20 -20 -20 -20 -20 2 1 10 -5 -20 -20 -20 -20 -20 -20 -20 -20 2 1 8 -20 0 -20 -20 -20 -20 -20 -20 -20 -20
-20 -20 -20 -18 -20 -20 -20 -20 -20 -20 -20 -18 -20 -20 -20 -20 -20 -20 -20 -20 -20 -20 -20 -13 -15 13 4 12 -15 -17 -20 -20 -20 -20 -20 -16 -14 10 16 -2 -20 -20 -20 -20 -18 5 19 -19 -20
-20 -20 -20 -20 -20 -20 -20 -20 -20 -20 -20 -20 -20 -20 -20 -20 -20 -20 -20 -20 -20 -20 -20 -2 -20 -5 8 8 -6 -18 -20 -20 12 16 15 12 3 -20 12 -4 -20 -20 -20 -20 -16 25 -20 -20 -20
-20 -20 -20 -20 -5 -20 -20 -20 -20 -20 -20 -20 -20 -20 -20 -20 -20 -20 -7 -2 -20 -20 -20 -20 -20 -14 -5 -20 -20 6 -1 -5 -3 14 33 25 34 34 21 15 -11 -20 -20 -20 -20 25 -10 -20 -20
-20 -20 -20 -20 -20 -20 -20 -20 -20 -20 -20 -20 -20 -20 -20 -20 -20 -18 1 4 2 -2 -20 -20 -20 -20 -20 -20 -20 -20 15 -20 -20 25 23 27 25 21 32 -4 -20 -20 -20 -20 -20 -20 -15 2 8
-20 -20 -20 -20 -20 -20 -20 -20 -20 -20 -20 -20 -20 -20 -20 -20 -20 -20 -18 -20 -20 -20 -1 -20 -20 -20 -20 -20 -20 -20 -1 -20 -20 -20 -20 -20 -20 -19 -20 -20 29 -16 -20 -20 -6 -20 25 12 -17
-20 -20 -20 -20 -20 -20 -20 -20 -20 -20 -20 -20 -20 -20 -20 -20 -20 -20 -20 -20 -20 -11 2 -20 -20 -20 -20 -20 -20 -20 -20 -20 -20 -20 -20 -20 -20 -20 -9 -20 -20 -20 -20 -20 -20 -20 -20 -20 -20
-20 -20 -20 -20 -20 -20 -20 -20 -20 -20 -20 -20 -20 -20 -20 -20 -20 -20 -20 -20 -2 8 -20 -3 -20 7 -20 -20 -20 -20 -20 -20 -20 -20 -20 -20 -20 -20 -20 -18 -20 -20 -20 -20 -20 -20 -20 -20 -20
-20 -20 -20 -20 -20 -20 -20 -20 -20 -20 -20 -20 -20 -20 -20 -20 -20 -1 -0 -3 9 28 -20 -20 -20 -6 -4 -20 -20 -20 -20 -20 -20 -20 -20 -20 -20 -20 -20 -20 -20 -20 -20 -20 -20 -18 -16 -20 -20
-20 -20 -20 -20 -20 -20 -20 -20 -20 -20 -20 -20 -20 -20 -20 -20 -20 -20 -20 26 -13 1 22 -20 -20 -7 13 -20 -13 -20 -20 -20 -20 -20 -20 -20 -20 -20 -20 -20 -20 -20 -20 -20 -20 28 -18 -20 -20
-20 -20 -20 -20 -20 -20 -20 -20 -20 -20 -20 -20 -20 -20 -20 -20 -20 -20 -20 10 19 8 5 -20 -16 17 -10 -20 1 -20 -20 -20 34 -3 -20 -20 -20 27 -20 -20 -20 -20 -20 -20 8 -20 24 -18 12
-20 -20 -20 -20 -20 -20 -20 -20 -20 -20 -20 -20 -20 -20 -20 -20 -20 -20 -20 -10 -20 -20 15 22 28 9 -9 3 -16 -20 -20 -20 5 -5 -20 -1 -20 -19 26 -20 -20 -20 -20 -20 -20 -20 -20 24 21
-20 -20 -20 -20 -20 -20 -20 -20 -20 -20 -20 -20 -20 -20 -20 -20 -20 -6 -4 31 -17 -20 18 31 32 37 10 -20 -20 8 -16 -20 35 -20 -20 27 21 -15 29 -20 -20 -20 -20 -20 -20 -20 -20 -2 -18
-20 -20 -20 -20 -20 -20 -20 -20 -20 -20 -20 -20 -20 -20 -20 -20 -20 32 -19 31 -20 28 5 39 34 21 19 -18 -20 -20 -20 -20 -20 -20 -20 -20 5 21 -20 -20 -20 -20 -20 -20 -20 -20 -20 7 -20
-20 -20 -20 -20 -20 -20 -20 -20 -20 -20 -20 -20 -20 -20 -20 -20 -20 -20 -20 -20 32 34 32 29 -20 -17 -19 -20 -20 -20 -20 -20 -20 -20 -20 -20 -20 -18 31 -20 -20 -20 -20 -20 -20 -20 -20 -20 -20
-20 -20 -20 -20 -20 -20 -20 -20 -20 -20 -20 -20 -20 -20 -20 -20 -20 -20 -20 -20 -20 18 22 -6 6 -20 4 -20 -20 -20 -20 -20 -12 -20 -7 8 0 21 30 -20 -20 -20 -20 -20 -20 -20 -20 -20 -20
-20 -20 -20 -6 -20 -20 -20 -20 -20 -20 -20 -20 -20 -20 -20 -20 -20 -20 -20 -20 -20 -20 -20 -20 -20 -20 -20 -20 -20 -20 -20 -20 -19 24 23 20 21 12 -20 -20 -20 -20 -20 -20 -20 -20 -20 -20 -20
-20 -20 -11 -20 -20 -20 -20 -20 -20 -20 -20 -20 -20 -20 -20 -20 -20 -20 -20 -20 -20 -20 -20 -20 -20 -20 -20 -20 -20 -20 -20 -20 -20 9 29 30 10 -9 -20 -20 -20 -20 -20 -20 -20 -20 -20 -20 -20
4 -20 -20 -20 -20 -20 -20 -20 -20 -20 -20 -20 -20 -20 -20 -20 -20 -20 -20 -20 -20 -20 -20 -20 -20 -20 -20 -20 -20 -20 -20 -20 -20 -19 32 23 16 -20 -20 -20 -20 -20 -20 -20 -20 -20 -20 -20 29
-20 -20 -20 -20 -20 -20 -20 -20 -20 -20 -20 -20 -20 -20 -20 -20 -20 -20 -20 -20 -20 -20 -20 -20 -20 -20 -20 -20 -20 -20 -20 -20 -20 -20 -20 -10 -16 -20 -20 -20 -20 -20 -20 -20 -20 -20 -20 -20 -20
-20 -20 -20 -20 -20 -20 -20 -20 -20 -20 -20 -20 -20 -20 -20 -20 -20 -20 -20 -20 -20 -20 -20 -20 -20 -20 -20 -20 -20 -20 -20 -20 -20 -20 -20 -20 -20 -20 -20 -20 -20 -20 -20 -20 -20 -20 -20 -20 -20
-20 -20 -20 -20 -20 -20 -20 -20 -20 -20 -20 -20 -20 -20 -20 -20 -20 -20 -20 -20 -20 -20 -20 -20 -20 -20 -20 -20 -20 -20 -20 -20 -20 -20 -15 -20 -20 -15 29 -19 -20 -20 -20 -20 -20 -20 -20 -20 -20
-20 -20 -20 -20 -20 -20 -20 -20 -20 -20 -20 -20 -20 -20 -20 -20 -20 -20 -20 -20 -20 -20 -20 -20 -20 -20 -20 -20 -20 -20 -20 -20 -13 33 30 27 14 -15 -20 -20 -20 -20 -20 -20 -20 -20 -20 -20 -20
-20 -20 -20 -20 -20 -20 -20 -20 -20 -20 -20 -20 -20 -20 -20 -20 -20 -20 -20 -20 -20 -20 -20 -20 -20 -20 -20 -20 -20 -18 -4 -20 -6 33 16 31 11 -14 -12 7 -19 -20 -20 -20 -20 -20 -20 -20 -20
-20 -20 -20 -20 -20 -20 -20 -20 -20 -20 -10 -8 -20 -20 -20 9 -20 -20 -20 -20 -20 -20 -20 -20 -20 -20 -20 -20 -20 -20 -20 -20 -15 -14 -4 -20 -20 -17 -12 -15 -11 -20 -20 -20 -20 -20 -20 -20 -20
-20 -20 -20 -20 -20 -20 -20 -20 -20 -20 -20 -15 -20 -20 -20 -17 -20 -20 -20 -20 -20 -20 -20 -20 -20 -20 -20 -20 -20 -20 -20 -19 -20 -20 -20 -20 -20 -20 -10 -20 -20 -18 6 -10 -20 -20 -20 -19 10
Wind_Speed
4 2 1 4 6 7 4 6 1 8 4 6 0 3 4 3 1 3 7 10 18 14 13 14 18 18 18 17 18 18 18 18 17 16 16 16 15 14 13 13 14 14 13 12 12 16 11 10 9
3 2 4 3 7 5 2 1 4 2 1 8 5 4 3 3 4 10 8 14 17 14 12 11 19 18 18 17 18 18 18 18 17 16 14 15 14 14 13 13 14 13 11 10 12 16 14 4 8
2 4 4 5 4 4 2 1 3 3 1 4 1 6 3 2 8 12 10 16 16 13 10 12 18 18 18 17 17 17 17 17 16 16 15 15 14 13 12 12 13 11 10 9 11 17 16 10 9
2 4 5 7 7 2 1 3 4 2 2 3 1 5 5 3 9 6 16 16 15 12 9 16 19 19 18 18 17 17 16 16 15 13 14 14 14 13 13 12 10 9 9 6 8 10 11 9 10
3 3 6 5 2 1 2 6 3 2 3 0 2 3 5 4 13 17 16 14 14 11 8 13 18 19 17 17 16 16 15 15 14 13 13 12 11 12 11 10 10 8 6 6 6 8 7 6 6
5 3 6 5 2 2 3 7 2 2 4 4 6 5 3 8 15 14 13 13 12 11 7 10 16 17 15 16 16 15 14 13 14 13 12 10 9 9 11 9 7 8 6 4 4 5 5 5 4
5 4 3 4 4 2 2 3 3 0 1 3 5 4 3 6 10 11 11 11 10 9 8 6 13 13 17 14 13 14 14 13 12 12 9 8 6 6 7 8 6 6 4 3 1 3 4 5 5
5 5 3 2 4 3 4 5 2 4 3 0 5 6 5 8 14 11 9 10 10 7 7 5 6 6 6 7 13 12 13 13 12 13 12 6 2 2 4 5 4 4 3 1 1 2 3 6 6
2 5 3 7 6 5 8 8 5 3 2 1 3 6 9 20 16 12 10 7 8 7 7 6 5 6 6 6 7 12 13 12 10 11 14 9 4 4 3 3 4 3 2 4 5 5 5 7 8
4 4 8 9 8 4 8 6 8 3 4 2 7 12 19 18 16 16 14 14 14 15 9 8 7 7 7 6 5 6 5 4 4 4 4 4 4 3 3 4 4 3 4 7 4 8 8 7 3
1 3 3 4 8 8 9 6 4 4 3 7 10 17 18 18 14 13 12 12 14 10 8 7 6 6 7 6 4 2 2 3 3 5 4 4 2 1 1 1 2 2 3 2 3 4 1 3 4
1 6 2 1 7 8 10 7 5 7 4 5 18 22 19 18 16 15 13 12 10 8 8 9 8 8 7 3 4 4 4 3 3 3 5 3 2 3 2 1 1 2 1 3 2 2 3 3 4
2 5 3 4 6 7 7 7 5 4 3 11 16 17 18 15 13 10 10 8 14 17 10 10 9 9 6 5 3 4 4 4 4 4 5 3 3 3 2 2 2 2 2 2 2 3 2 2 4
4 6 8 7 8 6 6 3 4 2 11 12 15 15 14 15 15 11 14 14 12 11 12 10 8 7 7 4 4 4 4 4 4 4 5 6 4 3 3 2 3 3 3 2 2 3 3 3 4
4 4 4 3 8 6 7 1 2 5 11 13 11 11 12 11 12 15 16 15 15 12 11 9 10 8 8 8 5 4 4 4 4 4 5 6 5 4 4 3 2 3 3 3 2 3 3 1 2
3 4 5 2 7 5 8 7 5 9 13 11 11 9 8 7 11 8 9 12 10 12 14 11 8 7 7 8 4 3 4 4 4 4 4 7 6 5 4 3 3 2 2 2 2 2 1 1 2
8 3 5 10 5 6 3 4 4 9 10 9 9 8 7 5 4 1 5 6 8 10 12 11 7 6 9 6 5 5 4 4 3 3 4 4 5 6 5 4 3 3 3 2 1 2 1 1 1
3 4 5 5 2 1 3 3 6 6 7 8 6 6 6 6 5 4 4 5 6 7 12 11 8 9 6 5 3 2 2 2 3 4 4 5 5 7 6 3 4 4 3 2 1 2 1 1 1
2 3 5 5 1 3 4 4 4 5 5 6 7 8 7 6 5 6 6 7 7 6 12 14 13 8 5 2 3 2 3 2 3 4 5 6 5 6 6 4 4 4 4 3 2 1 1 0 1
2 2 5 10 3 6 3 3 1 6 4 7 10 8 8 5 5 5 6 5 6 6 8 9 11 8 7 3 2 3 3 3 2 2 4 3 4 4 5 6 5 5 3 3 3 2 1 1 0
2 4 2 7 3 6 5 3 3 3 3 5 5 3 4 6 9 9 8 7 5 6 8 8 7 7 4 5 3 2 2 0 1 2 0 3 5 4 5 6 5 5 4 3 2 2 2 1 1
5 3 4 6 3 4 3 5 6 4 8 7 5 6 6 6 5 8 7 6 6 6 5 6 5 5 5 6 3 4 3 3 2 1 2 3 6 5 6 5 5 4 4 4 3 3 2 2 2
8 2 5 4 3 5 0 5 8 3 8 7 5 5 6 7 7 8 8 8 5 6 6 5 5 5 6 6 6 5 4 3 0 1 2 4 4 5 7 6 5 5 4 4 4 3 3 2 2
4 3 7 5 3 3 1 4 8 6 10 3 5 6 7 6 5 6 6 6 5 4 4 5 6 6 5 5 7 7 6 4 3 2 3 3 3 4 6 7 6 6 6 6 4 4 4 3 4
5 7 4 5 5 6 3 3 12 5 8 9 12 8 7 7 6 7 8 8 7 7 8 6 7 6 5 6 5 6 6 6 6 5 3 3 3 3 6 7 6 5 6 6 5 5 5 4 3
5 8 7 6 4 4 2 7 8 5 4 4 8 9 9 7 7 8 9 9 9 9 8 8 7 6 6 6 6 4 5 4 4 3 4 4 3 4 5 6 7 7 6 6 5 4 4 4 4
3 3 4 9 4 2 4 8 8 5 6 4 7 8 10 10 9 10 8 7 8 8 9 9 7 5 5 6 5 5 5 5 5 3 5 4 3 3 4 6 6 6 6 6 5 4 6 5 5
4 5 3 3 4 4 5 6 8 6 11 8 9 10 11 10 10 8 8 9 7 7 6 7 8 8 7 6 6 4 3 3 3 3 5 2 2 1 2 4 6 6 6 6 6 5 5 5 5
1 0 5 5 5 7 3 9 9 10 12 18 12 11 11 11 11 10 9 8 9 8 8 8 7 7 7 6 5 4 3 4 3 3 2 3 3 3 3 2 2 4 4 5 6 6 6 6 6
4 8 7 6 6 3 4 10 4 8 9 11 11 13 12 11 13 9 7 7 7 7 7 8 5 6 6 5 4 4 4 5 6 5 4 5 5 5 4 4 3 1 2 3 5 5 5 7 7
Wind_Direction
315 359 347 36 55 61 39 72 322 306 351 336 49 76 114 49 104 182 137 140 131 138 139 137 133 129 127 123 120 120 121 118 120 124 127 132 134 134 133 130 121 120 124 125 125 114 107 109 117
307 64 34 60 78 64 39 132 226 228 15 296 346 96 54 96 85 126 123 143 134 136 134 139 137 135 132 129 125 126 123 121 121 125 127 128 126 128 131 126 120 124 128 128 117 97 77 84 128
287 46 67 70 83 98 153 169 153 273 350 353 39 59 57 84 118 137 130 138 131 134 131 146 138 136 135 132 128 129 126 126 131 132 130 129 127 123 116 119 122 128 133 135 131 123 141 190 151
88 16 38 65 59 14 133 240 193 77 33 197 96 67 78 144 134 125 135 137 130 135 138 147 141 143 140 135 133 130 130 128 128 127 128 128 129 129 124 122 122 126 128 130 120 123 148 158 154
39 58 56 74 68 250 280 301 88 35 283 15 129 91 82 136 113 134 140 139 133 136 144 145 150 148 143 138 135 132 134 134 132 131 129 131 131 128 122 114 123 120 115 110 127 135 156 149 138
44 74 62 57 27 219 229 219 270 281 336 133 87 97 119 116 131 142 139 136 137 139 139 154 153 153 147 143 144 142 139 143 141 140 141 141 133 133 128 126 129 125 123 124 128 149 174 172 161
102 71 114 123 181 227 222 91 193 49 250 86 111 71 61 126 131 136 131 127 131 143 136 153 160 161 158 152 152 154 153 156 150 145 140 137 141 147 141 137 148 140 145 143 177 202 195 193 186
97 95 69 18 189 258 149 174 221 178 233 234 135 152 177 169 142 130 125 129 139 144 147 146 146 148 148 159 164 167 170 163 167 156 124 101 25 327 307 168 162 164 154 137 261 250 232 206 200
131 70 148 191 169 237 155 192 168 187 159 71 99 140 147 141 139 130 125 131 144 156 156 146 155 147 153 167 183 183 185 172 173 158 152 151 157 228 218 192 202 187 213 277 271 261 243 216 202
98 123 211 183 191 174 169 197 172 169 166 149 76 94 129 141 150 151 160 166 175 180 173 169 168 159 158 179 188 174 188 141 149 147 124 132 177 195 201 242 250 252 320 336 322 284 249 214 176
145 208 166 236 171 136 169 192 192 142 233 208 163 145 147 148 159 167 167 174 179 180 174 170 163 166 173 182 164 171 140 151 148 159 149 147 175 252 292 317 311 1 323 324 342 321 301 194 172
238 250 167 307 166 140 169 146 196 191 230 179 159 157 152 162 170 174 170 168 162 178 185 174 164 171 185 167 171 172 156 166 159 170 168 164 191 239 250 236 258 285 307 302 304 285 279 232 195
189 291 218 196 151 150 145 170 198 209 43 125 139 156 164 170 168 163 160 159 167 192 186 185 173 175 179 173 158 162 175 178 170 175 183 183 189 234 250 241 227 254 274 285 309 294 285 256 222
247 281 262 176 152 150 137 140 180 141 131 134 150 166 172 176 172 165 168 182 191 176 183 174 173 177 162 181 190 176 188 184 175 189 195 201 196 215 239 250 233 236 252 268 301 283 273 262 211
308 330 320 190 150 172 123 242 206 147 143 152 164 174 177 184 177 185 177 174 187 189 170 166 172 174 180 189 193 179 197 197 190 204 204 191 195 219 225 228 216 226 232 260 291 285 257 203 238
2 50 16 20 150 207 135 251 173 165 146 167 172 180 179 186 190 194 193 195 187 174 171 155 174 183 192 197 176 187 198 194 212 187 202 206 187 196 222 217 218 222 233 242 282 293 350 256 244
8 58 10 328 248 157 170 238 178 154 160 162 180 184 187 160 163 280 173 198 181 174 164 141 162 201 195 194 184 199 193 212 198 191 214 222 187 198 216 213 217 213 236 237 261 280 243 6 301
21 357 313 258 296 81 135 347 74 135 159 184 173 178 188 195 203 181 173 179 167 180 151 154 206 214 191 182 173 190 186 202 199 210 222 211 211 204 195 202 225 188 222 252 257 272 250 254 300
114 219 281 289 47 125 81 92 133 153 160 179 196 201 200 204 177 185 177 170 167 164 161 178 196 206 166 161 160 178 188 193 220 212 211 212 206 202 174 193 205 190 211 212 236 297 301 292 290
190 309 300 300 306 98 77 34 315 197 218 201 207 205 191 175 193 199 172 160 158 163 179 177 188 182 186 159 140 152 166 203 199 204 223 208 217 196 190 177 198 191 203 233 241 243 329 305 247
251 211 274 234 7 34 113 355 324 272 267 226 224 180 198 199 205 200 184 174 169 164 176 194 198 186 177 147 115 92 77 335 205 232 127 230 224 191 181 192 192 187 187 213 222 235 214 284 226
305 174 221 274 136 203 88 259 266 244 263 219 190 194 214 202 196 214 174 177 181 184 177 190 199 183 191 169 155 172 184 209 220 138 135 225 224 199 190 190 192 198 188 206 202 210 219 224 255
239 297 289 303 132 123 200 93 270 349 270 243 219 215 219 212 188 205 192 188 184 179 181 187 198 205 191 173 177 185 194 229 280 166 164 212 217 205 196 200 194 199 206 219 205 200 197 204 238
255 17 34 56 72 41 258 128 280 204 228 142 195 199 209 205 192 207 201 175 178 164 179 185 190 217 199 177 179 185 193 218 249 252 223 206 209 197 210 202 198 198 201 211 217 210 209 228 242
91 62 341 353 12 222 316 71 239 246 229 209 195 188 199 188 187 188 184 190 178 184 195 189 187 213 194 193 188 189 202 210 232 245 240 215 207 201 208 207 205 205 204 207 207 207 217 220 228
179 152 162 201 199 248 215 235 256 246 257 197 173 179 169 190 186 197 195 191 189 189 187 186 182 204 184 192 202 194 204 208 222 241 268 237 229 214 178 202 199 206 202 210 206 216 217 213 227
179 185 181 105 5 58 249 294 298 268 249 236 206 171 193 185 192 201 188 197 182 178 186 182 176 194 186 190 189 203 206 212 232 247 263 266 228 215 208 192 197 203 202 204 197 215 226 215 224
170 155 81 17 141 235 287 280 243 228 226 219 222 215 204 190 181 198 182 190 188 185 174 167 173 185 184 185 189 203 196 211 220 225 275 288 303 11 162 180 183 188 199 197 196 211 226 225 231
86 31 53 121 131 167 207 262 220 226 197 209 208 217 208 188 194 192 194 188 187 173 166 175 175 170 173 177 169 181 198 186 193 159 166 81 67 47 52 130 186 198 195 200 202 215 214 219 232
179 209 159 134 241 172 161 273 260 244 198 179 193 197 197 197 197 186 184 175 186 180 158 167 171 171 176 166 162 149 115 113 100 80 70 70 71 50 56 60 81 152 243 218 228 240 234 225 224